Content
SEND FEEDBACK

Daily
Averages
Monthly
Summary
United States of America

POWER, MONTANA


Home > North America > United States > Montana
Elevation: 3750 feet     Latitude: 47 39N     Longitude: 111 36W

WEATHER
 
SELECT A DAY
Number of Records: 197,318;   Date Range: 1/1/95 - 9/3/14
 
SHARE

PRINT THIS DATA

[ ← Previous Day ]
WEATHER ALMANAC - JANUARY 31, 2013
[ Next Day → ]
[ °C ]   °F
Weather ElementAverageHighLow
Temperature24.7 °F39 °F (7:53 pm)12 °F (12:53 am)
Dewpoint17.1 °F28.9 °F (11:53 pm)6.1 °F (12:53 am)
Humidity73.4 %85 % (3:41 am)65 % (7:53 pm)
Barometer30.19 in30.31 in (2:53 am)30.06 in (10:53 am)
Wind Speed7.2 mph13.8 mph (10:53 pm)
Weather ElementAverage
Visibility10 mi
Wind DirectionSSE (152 °)

Weather ElementTotal
Precipitation0.01 in
Heating Degree Days39.5 (Base 65)
Averaged from 25 records on January 31, 2013
WEATHER CONDITIONS BREAKOUT
WIND DIRECTION BREAKOUT
WEATHER BY HOUR - JANUARY 31, 2013
[ °C ]   °F
Local TimeTemperatureDewpointHumidityBarometerVisibilityWind DirectionWind SpeedGust SpeedPrecipitationEventsConditions
12:53 AM12.0 °F6.1 °F77 %30.29 in10.0 miENE (70°)4.6 mphOvercast
1:53 AM12.9 °F7.0 °F77 %30.30 in10.0 miENE (70°)4.6 mphOvercast
2:53 AM12.9 °F8.1 °F81 %30.31 in10.0 miCalmOvercast
3:41 AM12.2 °F8.6 °F85 %30.11 in10.0 miEast (80°)4.6 mphOvercast
3:53 AM12.9 °F8.1 °F81 %30.30 in10.0 miEast (100°)4.6 mphOvercast
4:53 AM12.9 °F8.1 °F81 %30.30 in10.0 miESE (120°)3.5 mphOvercast
5:53 AM12.9 °F8.1 °F81 %30.31 in10.0 miEast (80°)8.1 mphOvercast
6:53 AM12.0 °F7.0 °F80 %30.30 in10.0 miSE (130°)5.8 mphOvercast
7:53 AM15.1 °F9.0 °F77 %30.30 in10.0 miCalmOvercast
8:53 AM16.0 °F10.0 °F77 %30.30 in10.0 miCalmOvercast
9:53 AM18.0 °F10.9 °F74 %30.28 in10.0 miCalmPartly Cloudy
10:53 AM19.4 °F12.2 °F74 %30.06 in10.0 miSW (230°)6.9 mphPartly Cloudy
11:53 AM21.0 °F14.0 °F74 %30.24 in10.0 miSW (220°)5.8 mphClear
12:53 PM24.1 °F16.0 °F71 %30.21 in10.0 miSW (230°)5.8 mph0.01 inClear
1:53 PM30.0 °F21.9 °F72 %30.17 in10.0 miSW (220°)6.9 mphPartly Cloudy
2:53 PM34.0 °F25.0 °F70 %30.14 in10.0 miSSW (210°)10.4 mphMostly Cloudy
3:53 PM36.0 °F27.0 °F70 %30.13 in10.0 miSSW (210°)10.4 mphPartly Cloudy
4:53 PM35.1 °F25.0 °F67 %30.13 in10.0 miSW (220°)10.4 mphMostly Cloudy
5:53 PM37.0 °F27.0 °F67 %30.13 in10.0 miSW (220°)12.7 mphOvercast
6:53 PM36.0 °F27.0 °F70 %30.13 in10.0 miSW (220°)12.7 mphOvercast
7:53 PM39.0 °F28.0 °F65 %30.11 in10.0 miWSW (240°)11.5 mphOvercast
8:53 PM37.9 °F28.0 °F68 %30.10 in10.0 miSW (230°)12.7 mphOvercast
9:53 PM39.0 °F28.0 °F65 %30.07 in10.0 miSW (230°)12.7 mphOvercast
10:53 PM39.0 °F28.0 °F65 %30.07 in10.0 miSW (230°)13.8 mphOvercast
11:53 PM39.0 °F28.9 °F67 %30.08 in10.0 miWSW (240°)11.5 mphOvercast
Hourly data recorded from KGTF, located miles away from Power, Montana







STORIES FROM OUR PARTNERS